Location: Newark
(33.2404°N, 35.6778°E)
Time: 11:36:13
(UTC+00:00)

Hubble Space Telescope - Pass Details

Date: 01 February 2020
Orbit: 536 x 540 km, 28.5° (Epoch: 23 February)

Event Time Altitude Azimuth Distance (km) Brightness Sun altitude
Exits shadow 02:03:54 16° 133° (SE) 1,441 3.4 -31.5°
Drops below altitude 10° 02:05:21 10° 115° (ESE) 1,777 4.2 -31.2°
Sets 02:08:06 0° 97° (E) 2,669 5.5 -30.6°
